Regional Weather Roundup
Issued by NWS

Home | Current Version | Previous Version | Graphics & Text | Print | Product List | Glossary On
Versions: 1 2 3 4 5 6 7 8 9 10 11 12 13 14 15 16 17 18 19 20 21 22 23 24 25 26 27 28 29 30 31 32 33 34 35 36 37 38 39 40 41 42 43 44 45 46 47 48 49 50
662
ASUS44 KJAN 212210
RWRMS

MISSISSIPPI HOURLY WEATHER ROUNDUP
NATIONAL WEATHER SERVICE JACKSON MS
500 PM CDT MON JUL 21 2014

NOTE: "FAIR: INDICATES FEW OR NO CLOUDS BELOW 12,000 FEET WITH NO
SIGNIFICANT WEATHER AND/OR OBSTRUCTIONS TO VISIBILITY.

MSZ001>002-007>008-010>013-018>021-025>028-034>036-212300-
NORTHWEST MISSISSIPPI

CITY           SKY/WX    TMP DP  RH WIND       PRES   REMARKS
CLARKSDALE     FAIR      84  70  61 N7        30.03F
CLEVELAND      FAIR      85  73  67 N5        30.02R HX  91
GREENWOOD      MOSUNNY   87  68  52 N7        30.01S HX  90
GREENVILLE     MOSUNNY   88  67  49 NE3       30.01F HX  91
GRENADA        FAIR      84  64  51 NE3       30.02S
OLIVE BRANCH   MOSUNNY   82  66  57 NE6       30.04S
OXFORD         PTSUNNY   82  66  57 N6        30.05S
TUNICA         MOCLDY    84  68  58 N6        30.04S
$$

MSZ003>006-009-014>017-022>024-029>033-037>039-212300-
NORTHEAST MISSISSIPPI

CITY           SKY/WX    TMP DP  RH WIND       PRES   REMARKS
BELMONT        FAIR      84  69  61 N3        30.04S
COLUMBUS AFB   SUNNY     87  68  52 VRB3      30.01S HX  90
CORINTH        FAIR      84  66  54 N3        30.04S
GOLDN TRIANGLE MOSUNNY   90  66  45 N8        30.02  HX  92
STARKVILLE     MOCLDY    86  66  51 NE5       30.01S
TUPELO         SUNNY     86  65  49 NE6       30.03R
$$

MSZ040-058-212300-
CENTRAL MISSISSIPPI

CITY           SKY/WX    TMP DP  RH WIND       PRES   REMARKS
JACKSON INTL   MOSUNNY   90  65  43 N5        30.00F HX  92
JACKSON HAWKNS PTSUNNY   89  65  44 VRB7      30.01F HX  91
MERIDIAN KEY   MOSUNNY   88  65  46 N6        29.98F HX  90
MERIDIAN NAS   MOSUNNY   89  67  47 N7        29.99F HX  92
RAYMOND        FAIR      88  82  84 W3        30.00F HX 108
VICKSBURG      SUNNY     88  70  55 VRB3      30.01F HX  93
$$

MSZ059>079-212300-
SOUTH MISSISSIPPI

CITY           SKY/WX    TMP DP  RH WIND       PRES   REMARKS
BROOKHAVEN     FAIR      86  70  58 CALM      30.03S HX  90
COLUMBIA       FAIR      88  68  51 W7        29.98F HX  91
HATTIESBURG    MOSUNNY   89  66  46 W7        29.99F HX  91
MCCOMB         PTSUNNY   87  67  51 N8        30.00F HX  90
NATCHEZ        MOSUNNY   84  68  58 N8        30.02F
PINE BELT      SUNNY     90  66  45 W7        30.01S HX  92
$$

MSZ080>082-212300-
COASTAL MISSISSIPPI

CITY           SKY/WX    TMP DP  RH WIND       PRES   REMARKS
BAY ST LOUIS   MOSUNNY  N/A N/A N/A CALM      29.98S
BILOXI         SUNNY     89  68  49 VRB2      29.98S HX  93
PASCAGOULA     SUNNY     91  68  46 VRB3      29.97S HX  95
GULFPORT       SUNNY     91  67  44 NW10      29.97F HX  94
$$



USA.gov is the U.S. government's official web portal to all federal, state and local government web resources and services.